Tracking 18942 objects as of 17-Jan-2018
HD Live streaming from Space Station
objects crossing your sky now

GLOBALSTAR M034

Track GLOBALSTAR M034 now!
10-day predictions
GLOBALSTAR M034 is classified as:


NORAD ID: 25962
Int'l Code: 1999-062B
Perigee: 1,770.4 km
Apogee: 1,792.9 km
Inclination: 52.0 °
Period: 122.1 minutes
Semi major axis: 8152 km
RCS: 2.591 m2 (large)
Launch date: November 22, 1999
Source: Globalstar (GLOB)
Launch site: TYURATAM MISSILE AND SPACE COMPLEX (TTMTR)
aabbcc
Your satellite tracking list
Your tracking list is empty




NASA's NSSDC Master Catalog

Two Line Element Set (TLE):
1 25962U 99062B   18016.92601405 -.00000069 +00000-0 +18766-3 0  9990
2 25962 051.9840 210.7711 0013812 328.7671 175.0035 11.79383525818823
Source of the keplerian elements: AFSPC